Location: La Trinit�
(48.1620°N, 3.4512°W)
Time: 02:56:22
(UTC+00:00)

OE (NEXTSAT) - Pass Details

Date: 08 May 2021
Orbit: 426 x 431 km, 46.0° (Epoch: 13 June)

Event Time Altitude Azimuth Distance (km) Brightness Sun altitude
Rises 20:31:00 0° 259° (W) 2,393 8.7 -8.3°
Reaches altitude 10° 20:33:07 10° 256° (WSW) 1,528 7.6 -8.6°
Maximum altitude 20:36:31 60° 176° (S) 500 4.4 -9.1°
Drops below altitude 10° 20:39:56 10° 96° (E) 1,532 6.6 -9.5°
Enters shadow 20:40:02 10° 96° (E) 1,566 6.6 -9.5°
